Wind_Speed
22 19 20 18 17 16 15 13 11 10 9 6 4 9 9 9 5 5 6 9 5 7 10 2 2 15 13 14 19 16 24 22 26 25 19 17 15 14 13 16 19 19 17 16 15 15 15 14 13
24 20 19 19 19 17 17 16 14 13 11 9 8 9 11 10 10 8 7 10 8 4 8 3 4 10 11 7 19 17 23 26 29 28 24 21 21 18 16 16 16 16 18 16 15 14 15 15 14
24 23 22 22 19 21 20 21 20 16 15 13 11 11 16 13 9 10 10 9 14 11 9 3 13 6 9 5 16 18 20 24 29 29 27 25 22 21 18 16 15 14 15 16 18 18 19 22 22
23 20 16 14 16 15 16 23 25 22 20 18 15 14 14 14 11 12 12 11 13 15 12 5 10 9 9 7 8 20 19 22 26 26 26 26 22 22 22 16 14 16 17 17 17 16 19 21 23
20 14 10 11 15 16 17 25 25 21 23 24 21 18 18 17 16 15 14 13 10 16 13 10 5 2 6 3 0 20 19 20 22 24 24 24 24 25 28 25 22 19 18 18 17 14 16 12 15
16 14 11 14 15 18 18 20 21 21 24 24 24 23 19 19 20 20 17 16 13 16 16 14 10 7 8 6 1 11 18 17 18 19 22 21 22 23 27 28 29 21 20 20 18 15 16 14 9
8 8 21 14 21 23 21 25 25 24 20 18 17 19 23 28 23 23 22 20 16 13 18 17 8 10 15 9 5 5 9 12 16 16 20 20 19 22 25 29 30 33 21 25 23 18 13 13 14
7 10 6 4 18 26 20 22 21 16 18 19 14 16 19 20 20 25 25 25 23 18 16 19 14 11 21 17 7 6 12 11 13 15 18 17 16 21 22 27 27 26 29 26 25 20 18 15 12
9 15 13 8 6 7 25 27 25 20 22 28 29 27 28 32 28 28 28 29 30 24 18 21 19 15 15 16 14 12 5 2 4 8 13 15 15 15 18 22 22 21 25 25 25 26 25 18 15
5 15 15 21 24 22 12 7 16 15 17 24 29 36 38 38 38 31 34 31 31 31 25 22 21 27 17 22 14 14 10 3 6 6 9 17 15 13 15 15 19 18 22 24 24 22 21 23 19
4 6 12 14 21 21 18 17 17 19 13 12 7 7 19 29 38 36 36 37 35 32 30 28 27 28 21 12 19 23 17 13 10 1 5 12 10 11 13 12 14 16 18 22 20 20 18 18 18
5 2 3 6 12 15 14 11 10 8 13 18 11 11 9 9 20 34 37 41 42 40 35 32 33 31 29 21 24 29 23 15 9 11 2 2 6 6 9 10 13 13 16 20 20 19 16 17 19
5 7 4 1 4 4 7 11 8 7 9 12 8 12 19 13 12 20 32 41 44 46 44 40 37 36 33 25 26 31 25 20 16 13 10 12 14 4 6 10 11 10 12 16 20 19 18 16 16
9 7 9 6 6 1 10 13 8 10 12 12 12 14 18 19 14 12 22 35 44 45 48 45 43 40 39 37 34 23 27 24 25 19 16 14 13 3 2 9 12 9 10 15 17 21 18 18 14
15 13 12 12 10 12 7 9 15 9 8 15 16 12 14 18 22 19 17 25 39 47 46 48 46 46 43 43 39 31 30 21 25 20 16 15 13 5 5 7 10 11 10 14 18 20 15 20 16
11 17 16 18 15 19 12 11 17 12 12 15 15 10 14 20 25 21 16 21 33 44 49 46 47 47 47 46 41 40 27 21 25 21 23 18 18 9 8 10 8 12 12 14 17 19 17 19 18
27 17 21 26 22 20 13 16 8 15 15 17 14 13 14 9 21 29 22 12 27 36 47 50 47 47 49 48 46 43 42 35 25 24 26 20 21 13 11 11 10 13 14 13 17 20 20 21 18
16 18 25 25 23 17 13 12 12 12 19 14 8 16 15 19 18 26 17 10 17 30 35 49 51 48 48 50 48 47 44 42 35 31 31 25 28 19 13 12 15 16 13 16 18 18 19 20 24
32 29 23 22 27 19 22 17 15 19 11 11 15 24 24 16 23 18 13 4 14 22 26 32 49 52 49 46 49 51 50 46 40 33 31 26 29 23 22 17 15 15 14 19 20 18 18 21 23
36 32 31 29 23 19 30 28 16 15 17 15 17 31 24 22 26 20 15 11 7 12 16 22 33 49 52 50 49 49 50 50 47 45 36 29 30 33 27 22 16 16 17 20 20 20 19 22 22
40 34 29 31 33 25 23 18 23 18 15 18 8 17 23 22 23 19 8 6 4 4 7 10 19 32 47 53 51 51 50 51 48 45 40 35 31 27 30 24 18 19 19 21 20 19 19 22 18
39 45 38 33 31 31 28 22 18 20 12 13 8 15 14 19 26 19 13 11 6 6 6 6 9 16 30 44 55 53 50 51 52 49 41 34 30 29 27 27 25 23 23 22 19 17 19 17 23
41 40 42 37 29 29 29 27 20 19 15 14 14 15 12 16 20 24 5 14 7 9 10 10 9 9 13 24 36 47 53 53 49 51 47 38 34 32 31 33 26 25 25 20 19 16 16 20 21
40 37 34 38 37 34 29 30 22 19 14 10 7 12 7 8 16 23 8 8 9 16 18 18 13 10 8 9 16 27 35 42 46 47 50 46 41 36 34 31 30 23 25 16 18 15 16 21 23
46 35 38 43 39 36 28 25 20 15 13 8 7 10 7 11 16 22 23 22 19 20 20 19 14 10 6 7 8 11 20 25 30 37 45 43 43 39 28 32 31 27 25 17 16 14 19 17 18
55 41 32 43 38 30 28 25 12 7 11 14 10 5 10 9 15 18 24 25 19 21 22 23 18 12 8 7 6 8 11 17 23 27 33 38 37 36 29 26 27 24 21 14 8 12 14 16 28
52 50 52 35 38 35 28 31 20 10 10 19 13 16 15 9 13 22 23 26 19 18 19 24 20 15 12 8 8 10 11 14 18 20 24 30 32 32 29 25 26 27 20 15 17 16 17 19 26
48 54 55 56 44 39 37 36 30 21 9 14 14 13 15 7 11 22 28 32 23 19 19 19 22 22 20 15 12 9 13 14 15 17 19 25 28 32 30 27 25 17 16 18 17 17 18 26 25
49 52 57 58 55 41 47 45 41 33 19 11 5 18 24 25 24 28 32 33 24 17 19 19 22 25 25 21 18 14 12 17 16 16 16 16 20 28 31 24 23 18 20 18 15 16 17 30 32
44 49 51 57 61 56 46 51 46 37 33 17 11 17 22 21 21 26 29 30 21 8 8 12 19 26 29 24 21 19 17 19 19 16 16 19 14 23 25 19 21 25 20 21 17 17 26 26 25
Wind_Direction
190 192 199 193 196 198 200 198 209 224 229 233 224 245 262 251 269 227 198 189 155 119 102 193 92 26 15 83 82 77 75 76 79 72 69 63 58 54 54 51 47 46 50 60 65 62 60 47 31
190 199 204 203 204 208 210 218 233 239 234 229 245 277 275 267 259 238 205 212 192 177 151 172 340 11 28 89 89 90 80 75 75 72 67 61 62 55 49 45 40 45 50 62 63 57 49 42 44
187 204 208 215 213 215 214 217 225 225 225 236 250 270 279 265 243 226 225 210 209 215 200 249 88 2 31 19 102 96 87 74 67 68 65 58 58 52 42 28 29 36 45 51 55 51 55 78 74
188 204 206 218 219 229 230 225 225 225 225 230 235 246 271 266 253 226 224 235 209 208 210 174 116 71 71 26 102 99 95 77 68 71 66 60 60 57 50 40 32 41 41 40 47 51 65 87 70
188 203 217 236 236 228 231 238 238 242 240 231 233 235 249 261 255 246 238 240 230 209 215 195 129 143 114 135 38 98 98 77 67 74 72 68 63 59 47 43 44 50 46 41 47 63 70 97 75
167 170 212 260 246 243 245 236 234 238 247 247 242 239 234 242 255 246 238 240 240 214 216 221 219 190 182 160 15 13 125 84 71 76 74 73 59 57 48 47 52 47 45 42 48 66 66 66 79
122 207 204 238 234 252 253 252 250 246 249 250 248 243 242 239 241 242 242 236 237 231 222 225 218 171 174 150 200 140 89 73 77 89 75 72 64 52 50 49 52 49 55 46 51 57 51 54 52
99 195 235 237 232 238 231 238 256 255 262 264 264 249 226 226 245 240 244 242 235 232 224 211 211 195 167 170 184 244 88 60 72 93 81 81 64 52 47 46 43 49 52 47 45 50 51 47 37
325 30 56 61 64 219 227 216 236 236 248 248 255 260 245 262 255 240 240 244 238 232 223 212 216 201 162 167 192 209 253 325 54 97 84 86 70 54 49 43 38 37 38 39 35 33 46 53 51
356 39 49 79 79 84 93 157 228 260 275 271 261 254 252 253 259 248 232 233 241 239 225 213 214 179 206 207 209 209 226 146 89 80 101 87 59 54 45 41 37 30 31 30 41 42 47 39 34
48 62 61 93 85 89 90 83 68 75 54 39 56 258 256 255 253 249 233 228 231 235 232 220 216 218 194 211 191 193 205 202 212 277 145 85 56 50 39 31 38 22 8 17 23 29 32 28 27
6 305 84 132 104 86 89 73 41 32 27 11 16 7 348 288 253 244 235 228 227 229 230 228 219 220 220 218 189 202 207 211 211 208 185 217 304 16 27 28 23 32 6 5 15 18 21 14 23
205 291 295 151 150 72 32 12 29 24 358 353 353 347 344 322 296 247 237 231 230 227 231 232 225 225 226 207 197 206 212 217 223 242 246 277 272 302 4 26 18 21 12 3 8 11 16 8 17
214 210 254 280 262 100 342 328 323 359 10 350 331 318 317 324 344 275 245 233 230 229 229 231 230 225 227 224 198 204 228 231 221 212 227 269 247 324 294 10 18 14 11 0 2 4 3 1 11
257 231 227 259 274 254 310 336 1 13 24 352 344 321 316 328 355 336 264 241 229 229 229 229 229 228 222 225 227 209 221 209 222 229 246 230 231 274 299 347 12 2 341 344 356 356 2 356 347
252 231 237 255 274 253 254 288 311 336 359 6 357 336 292 305 324 327 308 239 234 225 226 227 227 228 221 222 224 232 206 223 221 213 225 238 234 273 299 296 334 343 338 332 345 350 356 345 345
235 240 253 257 259 268 285 296 291 322 343 346 3 357 327 299 327 338 328 232 222 227 224 224 224 226 225 216 221 224 227 209 216 227 232 237 236 263 296 286 286 322 320 329 338 345 351 341 331
238 241 243 254 256 257 280 254 298 315 339 327 16 19 359 347 343 326 328 285 219 215 226 224 225 227 225 223 216 221 225 226 232 230 235 234 242 254 279 280 279 301 308 316 326 339 342 350 321
240 243 239 247 250 257 244 270 296 300 303 322 327 357 3 346 356 355 357 355 202 215 229 232 227 228 228 226 223 219 224 229 232 232 236 242 243 256 267 276 274 291 310 310 324 334 327 325 330
235 233 239 240 236 253 251 261 273 294 303 292 318 322 346 350 347 349 353 357 192 221 234 237 235 232 232 231 230 225 226 227 228 234 235 241 245 250 258 259 263 279 293 304 313 321 318 332 329
232 230 234 231 233 251 260 251 274 288 281 308 299 320 345 351 352 348 310 305 295 266 237 234 233 234 235 235 235 231 227 229 230 230 236 241 245 248 243 246 255 269 291 299 311 316 319 334 334
229 232 235 237 237 248 249 247 260 278 261 312 283 308 338 343 358 340 332 349 308 294 294 233 239 236 231 233 236 235 234 231 230 231 235 240 244 244 244 240 250 268 278 287 304 307 324 318 332
239 236 237 234 235 241 243 251 268 279 276 290 276 309 315 339 353 345 325 320 326 331 318 278 250 254 238 230 229 233 235 236 235 232 233 221 232 237 244 243 251 266 271 280 297 295 323 317 325
239 239 240 235 233 234 233 236 245 261 258 242 294 309 317 339 345 354 293 283 258 293 290 283 256 255 266 245 228 225 225 230 232 233 233 230 227 235 243 246 252 264 266 277 281 294 313 320 325
236 232 232 231 231 234 230 227 227 236 259 216 343 299 341 348 332 334 336 255 277 262 265 260 244 247 260 261 240 230 219 219 222 223 226 226 230 238 232 239 242 253 247 264 286 303 314 313 322
232 223 230 225 225 224 226 223 184 220 257 248 265 291 324 340 312 325 328 314 267 262 256 236 226 227 234 227 228 223 217 210 209 214 215 219 221 222 226 232 235 240 236 255 286 264 312 313 307
233 228 227 229 230 219 226 224 209 214 250 256 244 284 311 330 298 317 314 317 291 269 252 233 221 222 211 190 217 214 207 203 206 209 211 210 207 205 203 214 225 225 236 238 245 273 303 303 295
231 233 228 229 228 222 227 233 226 206 219 229 255 270 309 273 304 319 313 312 305 285 249 243 222 214 215 206 211 221 212 209 200 197 195 202 208 207 208 208 210 230 226 243 268 284 313 304 309
222 229 231 229 230 228 223 233 230 210 225 195 323 227 254 301 287 301 305 307 317 272 230 227 218 210 220 212 216 217 221 212 205 207 200 195 201 210 216 228 239 233 230 255 272 287 283 298 309
228 228 228 230 226 226 221 229 225 224 220 221 239 254 286 293 295 297 292 308 307 264 241 227 224 214 221 223 218 217 212 214 209 197 194 194 189 181 183 203 215 224 244 258 281 284 291 295 301
Height
11027 11031 11034 11036 11041 11044 11047 11049 11049 11050 11051 11053 11054 11055 11056 11057 11058 11060 11061 11061 11062 11063 11063 11064 11063 11063 11062 11059 11057 11057 11055 11053 11050 11049 11048 11046 11046 11045 11043 11041 11039 11036 11033 11031 11030 11028 11027 11027 11025
11025 11029 11032 11035 11038 11042 11046 11047 11046 11049 11051 11052 11053 11054 11055 11056 11056 11058 11060 11061 11062 11063 11064 11064 11064 11064 11064 11061 11059 11059 11059 11057 11053 11051 11051 11050 11048 11047 11046 11043 11041 11038 11035 11033 11032 11031 11030 11029 11026
11024 11027 11030 11033 11037 11039 11043 11045 11044 11046 11049 11051 11052 11053 11053 11055 11055 11056 11058 11059 11061 11062 11063 11064 11064 11065 11064 11063 11060 11060 11061 11059 11057 11056 11055 11054 11052 11050 11048 11045 11043 11040 11037 11036 11034 11033 11032 11031 11029
11022 11025 11029 11032 11034 11038 11042 11042 11040 11044 11046 11050 11051 11051 11052 11054 11055 11056 11057 11058 11059 11061 11064 11065 11064 11065 11065 11064 11064 11061 11062 11062 11061 11059 11058 11057 11055 11053 11050 11047 11044 11042 11040 11038 11037 11036 11035 11033 11032
11021 11024 11026 11028 11030 11033 11035 11036 11038 11041 11043 11045 11048 11048 11050 11051 11053 11054 11056 11057 11058 11060 11062 11064 11063 11065 11065 11065 11066 11062 11065 11064 11065 11062 11061 11060 11058 11056 11052 11050 11047 11045 11043 11041 11040 11038 11038 11036 11036
11020 11024 11027 11025 11025 11029 11030 11031 11032 11035 11036 11040 11044 11045 11047 11049 11050 11051 11053 11055 11056 11058 11060 11062 11062 11064 11066 11066 11068 11068 11064 11066 11066 11066 11063 11062 11061 11059 11055 11052 11051 11049 11047 11045 11044 11042 11041 11040 11039
11022 11024 11025 11025 11025 11025 11025 11026 11028 11030 11034 11036 11039 11040 11041 11045 11047 11048 11050 11052 11054 11055 11057 11059 11062 11062 11064 11064 11066 11066 11067 11067 11067 11068 11065 11064 11064 11062 11059 11055 11054 11053 11050 11050 11048 11047 11045 11044 11042
11028 11029 11026 11023 11020 11021 11020 11018 11024 11029 11030 11031 11034 11037 11038 11041 11043 11044 11046 11048 11050 11052 11054 11057 11060 11061 11063 11064 11066 11067 11065 11068 11070 11070 11067 11065 11066 11064 11063 11059 11058 11056 11055 11054 11052 11049 11048 11046 11044
11027 11025 11023 11021 11017 11018 11018 11020 11022 11028 11029 11028 11032 11032 11032 11034 11038 11039 11041 11043 11046 11048 11051 11055 11057 11059 11061 11063 11065 11066 11068 11070 11070 11071 11070 11067 11066 11066 11064 11062 11060 11059 11058 11056 11055 11052 11050 11048 11045
11026 11026 11028 11023 11019 11018 11015 11019 11024 11026 11024 11022 11025 11024 11027 11028 11031 11033 11035 11038 11041 11044 11048 11051 11055 11058 11059 11060 11063 11065 11066 11069 11068 11070 11070 11068 11068 11067 11066 11064 11061 11061 11061 11059 11057 11055 11053 11050 11046
11026 11025 11025 11025 11021 11019 11017 11019 11022 11024 11022 11022 11020 11019 11020 11019 11022 11025 11027 11030 11035 11038 11043 11047 11051 11052 11055 11058 11059 11063 11065 11067 11068 11070 11069 11069 11069 11068 11067 11066 11064 11063 11062 11062 11060 11057 11055 11051 11048
11024 11024 11023 11022 11019 11018 11017 11018 11020 11022 11022 11019 11019 11017 11015 11013 11013 11015 11018 11022 11026 11030 11035 11041 11045 11049 11052 11054 11056 11059 11062 11064 11066 11068 11068 11069 11070 11069 11067 11066 11065 11064 11063 11062 11061 11058 11055 11053 11051
11020 11021 11022 11022 11020 11018 11017 11018 11017 11019 11019 11020 11017 11014 11012 11010 11007 11005 11008 11013 11017 11021 11026 11032 11037 11042 11047 11051 11052 11056 11059 11061 11064 11065 11066 11069 11069 11069 11067 11066 11065 11065 11064 11063 11062 11059 11055 11053 11051
11015 11015 11019 11018 11017 11017 11017 11018 11019 11017 11016 11017 11015 11011 11008 11005 11002 11001 11001 11003 11006 11011 11017 11023 11029 11034 11040 11045 11049 11052 11055 11058 11061 11062 11065 11067 11068 11067 11066 11065 11064 11065 11065 11063 11062 11059 11056 11051 11049
11010 11012 11012 11014 11015 11015 11018 11016 11017 11018 11016 11013 11011 11007 11005 11000 10998 10996 10994 10994 10995 11000 11006 11013 11019 11025 11032 11036 11041 11047 11052 11055 11058 11059 11062 11064 11065 11065 11065 11065 11064 11064 11064 11064 11062 11059 11055 11052 11048
11005 11007 11009 11011 11011 11011 11014 11016 11015 11015 11013 11012 11006 11005 11001 10998 10993 10989 10988 10985 10986 10990 10996 11003 11009 11016 11023 11029 11035 11039 11045 11051 11053 11057 11059 11061 11062 11063 11064 11064 11063 11063 11063 11063 11062 11060 11055 11052 11048
11005 11005 11006 11008 11008 11008 11010 11012 11014 11013 11010 11011 11008 11004 10997 10993 10988 10981 10974 10977 10977 10981 10988 10995 11001 11007 11014 11021 11027 11033 11039 11043 11048 11052 11055 11058 11059 11060 11061 11062 11062 11061 11062 11062 11061 11059 11054 11050 11048
11001 11002 11002 11005 11006 11006 11007 11009 11010 11011 11011 11009 11007 11003 10998 10990 10984 10981 10970 10967 10970 10975 10981 10986 10993 10999 11005 11013 11020 11026 11032 11038 11041 11046 11050 11055 11056 11058 11059 11059 11059 11059 11060 11060 11060 11058 11053 11049 11046
10998 10999 11002 11002 11004 11005 11006 11006 11006 11005 11004 11009 11002 10998 10997 10991 10984 10978 10972 10967 10970 10976 10978 10981 10986 10992 10999 11005 11013 11020 11025 11030 11036 11041 11046 11050 11052 11056 11056 11058 11058 11057 11057 11058 11057 11056 11052 11048 11045
10991 10992 10995 10999 11001 11002 11000 11002 11003 11001 11000 11001 10998 10995 10991 10985 10980 10977 10973 10971 10972 10975 10977 10979 10982 10986 10992 10997 11004 11012 11017 11022 11029 11035 11041 11045 11049 11053 11054 11055 11055 11054 11056 11056 11054 11053 11051 11047 11044
10986 10986 10988 10994 10996 10998 10998 10998 10998 10999 10997 10995 10994 10993 10990 10985 10981 10975 10971 10971 10972 10973 10974 10976 10979 10981 10985 10989 10995 11002 11009 11014 11022 11030 11034 11040 11045 11048 11050 11052 11052 11052 11053 11053 11051 11049 11047 11046 11044
10980 10980 10985 10989 10990 10990 10994 10996 10994 10994 10993 10990 10989 10989 10988 10983 10978 10973 10972 10972 10973 10974 10974 10974 10975 10977 10978 10981 10986 10993 10999 11005 11012 11021 11029 11034 11039 11043 11046 11048 11048 11049 11050 11051 11049 11047 11044 11043 11041
10972 10975 10977 10982 10985 10984 10988 10992 10992 10989 10987 10985 10985 10986 10986 10979 10974 10972 10971 10969 10967 10969 10971 10974 10973 10973 10973 10975 10977 10982 10990 10996 11004 11012 11021 11029 11033 11037 11042 11044 11045 11046 11047 11048 11047 11045 11043 11041 11038
10963 10969 10971 10973 10976 10977 10981 10986 10989 10987 10984 10982 10984 10983 10982 10976 10972 10973 10971 10968 10965 10967 10970 10970 10970 10969 10970 10970 10971 10975 10981 10987 10995 11004 11012 11019 11026 11030 11036 11039 11041 11043 11044 11045 11044 11043 11041 11038 11035
10954 10960 10962 10963 10967 10971 10975 10980 10984 10981 10978 10980 10981 10982 10979 10972 10970 10968 10969 10965 10962 10961 10966 10966 10966 10966 10966 10967 10969 10971 10975 10980 10986 10994 11002 11010 11018 11025 11032 11034 11038 11039 11042 11042 11040 11041 11040 11036 11033
10939 10951 10955 10956 10961 10967 10970 10971 10975 10976 10975 10974 10975 10976 10975 10972 10968 10966 10965 10962 10960 10957 10960 10960 10961 10963 10964 10965 10968 10970 10973 10976 10982 10989 10996 11003 11012 11020 11025 11030 11034 11037 11038 11039 11038 11039 11038 11035 11031
10934 10941 10946 10947 10953 10960 10962 10966 10969 10972 10972 10971 10970 10970 10968 10968 10968 10963 10962 10958 10953 10950 10952 10951 10956 10960 10962 10964 10967 10969 10973 10976 10981 10987 10992 10998 11007 11017 11022 11026 11030 11032 11035 11036 11035 11036 11033 11031 11029
10923 10924 10933 10936 10945 10952 10958 10959 10962 10970 10967 10968 10970 10967 10966 10967 10968 10965 10961 10954 10947 10943 10942 10944 10950 10955 10960 10963 10965 10967 10971 10976 10980 10985 10990 10997 11004 11012 11020 11023 11025 11029 11032 11031 11031 11032 11030 11028 11025
10910 10914 10918 10928 10937 10944 10948 10950 10954 10963 10963 10967 10965 10964 10963 10964 10963 10960 10958 10952 10942 10938 10938 10939 10943 10949 10954 10958 10961 10964 10968 10973 10978 10983 10989 10994 11000 11007 11016 11020 11024 11027 11027 11027 11028 11029 11027 11025 11023
10899 10904 10911 10916 10924 10934 10940 10937 10948 10955 10960 10963 10962 10962 10960 10956 10956 10955 10952 10947 10941 10932 10930 10933 10939 10945 10949 10952 10956 10960 10964 10969 10975 10981 10988 10993 10998 11004 11012 11018 11022 11023 11024 11026 11025 11025 11024 11023 11020